Tracking 25656 objects as of 21-May-2022
HD Live streaming from Space Station
objects crossing your sky now

COSMOS 2340

Track COSMOS 2340 now!
COSMOS 2340 is classified as:


NORAD ID: 24761
Int'l Code: 1997-015A
Perigee: 2,680.4 km
Apogee: 37,724.6 km
Inclination: 65.7 °
Period: 718.5 minutes
Semi major axis: 26573 km
RCS: 6.3095 m2 (large)
Launch date: April 9, 1997
Source: Commonwealth of Independent States (former USSR) (CIS)
Launch site: PLESETSK MISSILE AND SPACE COMPLEX (PKMTR)
aabbcc
Your satellite tracking list
Your tracking list is empty




NASA's NSSDC Master Catalog

Two Line Element Set (TLE):
1 24761U 97015A   22141.09155580 -.00000898  00000-0  00000-0 0  9991
2 24761  65.6626 283.2959 6593809 167.8839 223.3237  2.00414739183995
Source of the keplerian elements: AFSPC